www.pogodaiklimat.ru

Погода и климат >> Архив погоды >> Индонезия >> Факфак


ПОГОДА в Факфаке

  • Прогноз погоды в Факфаке
  • Монитор погоды в Факфаке

АРХИВ ПОГОДЫ в Факфаке

Время (UTC), дата Ветер
(напр.,м/с)
 
Видим.   Явления Облачность Т
(С)
Тd
(С)
f
(%)
Тe
(С)
Тes
(С)
Комфортность P
(гПа)
Po
(гПа)
Тmin
(С)
Tmax
(С)
R
(мм)
R24
(мм)
S
(см)
06 12.06 Ю 2 7000 м осадки на расстоянии 10/5 300 м
[Cb cap Ac As Ci ing]
+28.1 +23.8 78 +39 +41 очень
душно
1011.1 994.9
09 12.06 штиль 0 6000 м осадки на расстоянии 9/5 300 м
[Cb cap Ac As Ci sp]
+27.4 +24.1 82 +38 +38 очень
душно
1011.9 995.7
12 12.06 штиль 0 6000 м в посл. час дождь 9/4 300 м
[Cb cap Ac As Ci sp]
+25.6 +24.2 92 +35 +35 очень
душно
1013.0 996.8 +28.8 0.0
15 12.06 штиль 0 5000 м 6/3 360 м
[Cu Sc Ac lent Ci sp]
+25.3 +23.9 92 +35 +35 очень
душно
1013.0 996.8
21 12.06 С 2 5000 м 10/6 300 м
[Cb cap Ac lent Ci sp]
+23.6 +22.6 94 +31 +31 очень
душно
1011.5 995.3
00 13.06 З 2 8000 м {дождь} 9/5 300 м
[Cb cap Ac As Ci sp]
+26.8 +23.8 84 +37 +39 очень
душно
1012.8 996.7 +23.2 0.0
03 13.06 Ю 3 10 км 8/4 330 м
[Cb cap Ac lent Ci sp]
+28.5 +23.7 75 +39 +45 очень
душно
1011.8 995.6
06 13.06 Ю 2 12 км 9/5 300 м
[Cb cap Ac lent Ci sp]
+28.7 +23.5 74 +39 +42 очень
душно
1008.5 992.4
09 13.06 штиль 0 8000 м 9/5 300 м
[Cb calv Ac As Ci sp]
+27.3 +24.0 82 +38 +38 очень
душно
1010.0 993.9
12 13.06 штиль 0 5000 м слаб. дождь 10/5 300 м
[Cb cap Ac As Ci sp]
+26.2 +24.6 91 +37 +37 очень
душно
1012.2 996.1 +29.2 0.0
15 13.06 СВ 2 5000 м {дождь} 6/4 330 м
[Cu Sc Ac und Ci sp]
+25.2 +24.1 94 +35 +35 очень
душно
1011.9 995.8 0.0
21 13.06 СВ 2 7000 м 9/5 300 м
[Cb calv Ac As Ci sp]
+23.9 +22.8 94 +32 +32 очень
душно
1011.3 995.1
00 14.06 Ю 3 9000 м {дождь} 5/3 360 м
[Cu Sc Ac lent Ci fib]
+27.4 +24.1 82 +38 +42 очень
душно
1012.0 995.9 +23.2 0.0
03 14.06 Ю 2 10 км 9/5 300 м
[Cb cap Ac cuf Ci sp]
+27.6 +24.0 81 +38 +44 очень
душно
1011.0 994.9
06 14.06 В 2 500 м {дождь} 10/6 90 м
[St As op]
+26.2 +24.8 92 +37 +38 очень
душно
1008.9 992.8 2
09 14.06 В 2 5000 м слаб. дождь 10/6 90 м
[St As op]
+25.4 +24.4 94 +35 +35 очень
душно
1009.5 993.4 10
12 14.06 СВ 2 4000 м в посл. час дождь 10/6 270 м
[Cb cap Ac cuf Ci ing]
+25.2 +24.3 95 +35 +35 очень
душно
1011.4 995.2 +29.2 5
15 14.06 СВ 1 4000 м слаб. дождь 10/6 270 м
[Cb cap Ac cuf Ci ing]
+25.1 +24.2 95 +35 +35 очень
душно
1011.7 995.6 0.0
21 14.06 С 3 7000 м {дождь} 8/4 300 м
[Cb calv Ac lent Ci sp]
+23.7 +22.8 95 +31 +31 очень
душно
1011.3 995.2 0.0
00 15.06 штиль 0 9000 м {дождь} 9/4 300 м
[Cb cap Ac trans Ci sp]
+25.7 +23.5 88 +35 +39 очень
душно
1013.4 997.2 +23.3 18
03 15.06 Ю 2 7000 м осадки на расстоянии 9/5 270 м
[Cb cap Ac As Ci sp]
+27.5 +24.1 82 +38 +44 очень
душно
1012.3 996.2
06 15.06 В 2 7000 м в посл. час дождь 9/4 300 м
[Cb cap Ac As Ci sp]
+26.7 +24.4 87 +37 +41 очень
душно
1010.1 994.0 0.4
09 15.06 З 1 7000 м 10/5 300 м
[Cb cap Ac As Ci sp]
+26.5 +24.0 86 +37 +37 очень
душно
1010.5 994.4
12 15.06 ЮЗ 2 1000 м дождь 10/6
[Cb cap As op]
+24.0 +23.6 98 +33 +33 очень
душно
1013.6 997.5 +28.0 27
15 15.06 С 2 2000 м слаб. дождь 10/6
[Cb cap As op]
+24.1 +23.2 95 +32 +32 очень
душно
1013.1 996.9
21 15.06 штиль 0 7000 м {дождь} 10/5 300 м
[Cb calv Ac As Ci sp]
+23.9 +22.8 94 +32 +32 очень
душно
1012.1 995.9 0.0
00 16.06 Ю 2 8000 м осадки на расстоянии 10/5 240 м
[Cb cap Ac As Ci sp]
+25.5 +23.6 89 +35 +37 очень
душно
1013.5 997.3 +23.4 33
03 16.06 штиль 0 5000 м слаб. дождь 10/6 240 м
[Cb cap Ac As Ci sp]
+25.3 +23.6 90 +34 +39 очень
душно
1012.4 996.2 0.0
06 16.06 СВ 2 10 км {дождь} 8/4 300 м
[Cb calv Ac lent Ci sp]
+26.8 +23.4 82 +36 +40 очень
душно
1010.2 994.1 0.0
09 16.06 С 2 5000 м осадки на расстоянии 10/6 270 м
[Cb cap Ac cuf Ci ing]
+26.4 +23.5 84 +36 +36 очень
душно
1011.7 995.5
12 16.06 Ю 1 5000 м осадки на расстоянии 10/6 300 м
[Cb cap Ac cuf Ci ing]
+25.6 +23.8 90 +35 +35 очень
душно
1013.4 997.2 +28.4
15 16.06 СВ 2 4000 м слаб. дождь 10/6 300 м
[Cb cap Ac cuf Ci ing]
+23.8 +22.5 92 +31 +31 очень
душно
1013.7 997.5 2
21 16.06 СВ 2 6000 м {дождь} 10/5 300 м
[Cb cap Ac As Ci ing]
+27.3 +23.1 78 +37 +37 очень
душно
1012.7 996.5 0.2
00 17.06 Ю 2 8000 м {дождь} 10/5 300 м
[Cb cap Ac As Ci sp]
+25.4 +23.6 90 +35 +37 очень
душно
1013.8 997.7 +23.2 2
03 17.06 Ю 2 9000 м 10/5 300 м
[Cb cap Ac As Ci sp]
+27.0 +23.0 79 +36 +41 очень
душно
1013.0 996.9
06 17.06 ЮЗ 4 7000 м осадки на расстоянии 10/5 300 м
[Cb cap Ac As Ci sp]
+27.4 +23.8 81 +38 +40 очень
душно
1011.3 995.1
09 17.06 ЮЗ 3 7000 м осадки на расстоянии 10/5 240 м
[Cb cap Ac As Ci sp]
+26.1 +23.0 83 +35 +35 очень
душно
1012.2 996.0
12 17.06 С 3 5000 м 10/5 300 м
[Cb cap Ac As Ci sp]
+25.2 +23.0 88 +34 +34 очень
душно
1013.7 997.6
15 17.06 СВ 3 5000 м в посл. час дождь 10/5 300 м
[Cb cap Ac As Ci sp]
+23.9 +22.5 92 +31 +31 очень
душно
1014.0 997.8 2
21 17.06 СВ 2 5000 м слаб. дождь 10/5 300 м
[Cb cap Ac As Ci ing]
+23.2 +22.1 94 +32 +32 очень
душно
1012.9 996.8 0.0
00 18.06 ЮВ 1 5000 м в посл. час дождь 10/6 270 м
[Cb cap Ac cuf Ci ing]
+25.0 +23.2 90 +33 +35 очень
душно
1014.1 997.9 +22.8 1
03 18.06 Ю 2 7000 м осадки на расстоянии 10/6 270 м
[Cb cap Ac cuf Ci ing]
+26.2 +22.8 82 +35 +38 очень
душно
1012.7 996.5 0.0
06 18.06 ЮВ 2 6000 м слаб. дождь 10/6 270 м
[Cb cap Ac cuf Ci ing]
+26.4 +22.9 81 +35 +37 очень
душно
1011.0 994.8 0.0
09 18.06 ЮВ 3 7000 м {дождь} 8/4 360 м
[Cu Sc Ac cuf Ci sp]
+25.8 +22.3 81 +34 +34 очень
душно
1011.8 995.7 0.2
12 18.06 штиль 0 6000 м {дождь} 6/4 360 м
[Cu Sc Ac lent Ci fib]
+25.5 +22.7 85 +34 +34 очень
душно
1013.3 997.2 +27.0 0.2
15 18.06 СВ 3 5000 м 9/5 300 м
[Cb cap Ac cuf Ci sp]
+24.4 +22.7 90 +32 +32 очень
душно
1012.8 996.7
21 18.06 С 3 6000 м 6/4 300 м
[Cb calv Ac lent Ci sp]
+22.8 +21.2 91 +30 +30 очень
душно
1011.7 995.5
00 19.06 ЮВ 2 9000 м {дождь} 8/4 300 м
[Cb calv Ac lent Ci sp]
+25.7 +22.4 82 +34 +37 очень
душно
1013.1 996.9 +22.2 0.2
03 19.06 Ю 2 10 км 6/4 300 м
[Cb calv Ac trans Ci sp]
+27.3 +22.6 76 +36 +45 очень
душно
1012.9 995.8

 

Местоположение метеостанции Факфак (Индонезия): широта -2.92 долгота 132.26 высота над уровнем моря 130 м.

В архиве по умолчанию представлена погода в Факфаке за последнюю неделю. Архивные данные за месяц целиком и за предыдущие месяцы, начиная с января 2011 года, Вы можете получить, выбрав интересующий диапазон дат из раскрывающегося списка и нажав кнопку "Ввод!".


*Определитесь, кто Вы:
робот инопланетянин человек

Внимание! Время в таблицах - всемирное. Для получения местного времени необходимо прибавить поправку, которая равна 9 ч.

Смотрите также архив погоды в соседних городах и на ближайших метеорологических станциях:

Погода в Каимана (Индонезия) (185 км)
Погода в Гесере (Индонезия) (187 км)
Погода в Аэропорту Соронг-Джефман (Индонезия) (256 км)
Погода в Маноквари (Индонезия) (302 км)
Погода в Туале (Индонезия) (312 км)
Погода в Неира (Индонезия) (317 км)
Погода в Набире (Индонезия) (363 км)
Погода в Амахаи (Индонезия) (378 км)
Погода в Серуи (Индонезия) (456 км)
Погода в Биаке (Индонезия) (470 км)

Пояснения к столбцам:

Ветер - указаны скорость ветра в м/с - средняя за 10 мин, порывы в срок и между сроками (в фигурных скобках) и направление, откуда дует ветер: С - северный, СВ - северо-восточный, В - восточный, ЮВ - юго-восточный, Ю - южный, ЮЗ - юго-западный, З - западный, СЗ - северо-западный.
Видимость - горизонтальная дальность видимости в метрах или километрах. При видимости от 1 до 10 км при отсутствии осадков обычно наблюдается дымка, при ухудшении видимости до 1 км и менее - туман. В сухую погоду видимость может ухудшаться дымом, пылью или мглою.
Явления - указаны атмосферные явления, наблюдавшиеся в срок или в последний час перед сроком; фигурными скобками обозначены явления, наблюдавшиеся между сроками (за 1-3 часа до срока); квадратными скобками обозначены град или гололедные отложения с указанием их диаметра в мм.
Облачность - указаны через наклонную черту общая и нижняя облачность в баллах и высота нижней границы облаков в метрах; квадратными скобками обозначены формы облаков: Ci - перистые, Cs - перисто-слоистые, Cc - перисто-кучевые, Ac - высококучевые, As - высокослоистые, Sc - слоисто-кучевые, Ns - слоисто-дождевые, Cu - кучевые, Cb - кучево-дождевые. Подробнее классификацию облаков см. в Атласе облаков (PDF).
T - Температура воздуха - температура, измеренная на высоте 2 м над землей.
Td - Температура точки росы - температура, при понижении до которой содержащийся в воздухе водяной пар достигнет насыщения.
f - Относительная влажность воздуха - влажноcть воздуха, измеренная на высоте 2 м над землей.
Te - Эффективная температура - температура, которую ощущает одетый по сезону человек в тени. Характеристика душности погоды. При расчете учитывается влияние влажности воздуха и скорости ветра на теплоощущения человека.
Tes - Эффективная температура на солнце - температура, которую ощущает человек, с поправкой на солнечный нагрев. Характеристика знойности погоды. Зависит от высоты солнца над горизонтом, облачности и скорости ветра. Ночью, в пасмурную погоду, а также при ветре 12 м/с и более поправка равна нулю.
P - Атмосферное давление - приведенное к уровню моря атмосферное давление.
Po - Атмосферное давление - измеренное на уровне метеостанции атмосферное давление.
Tmin - Минимальная температура - минимум температуры воздуха на высоте 2 м над землей.
Tmax - Максимальная температура - максимум температуры воздуха на высоте 2 м над землей.
R - Количество осадков - Количество выпавших осадков за период времени, мм. При наведении курсора мыши на число - период времени, за который выпало указанное количество осадков.
R24 - Количество осадков - Количество выпавших осадков за 24 часа, мм.
S - Снежный покров - Высота снежного покрова, см. При наведении курсора мыши на число - состояние снежного покрова и степень покрытия местности в баллах.